Dewpoint
-13 -14 -13 -11 -9 -8 -8 -8 -7 -7 -6 -6 -4 -2 -2 -1 -2 -2 -1 -1 -1 1 3 2 1 2 2 3 3 4 4 4 4 4 2 -0 3 0 -1 8 10 12 11 12 13
-13 -13 -14 -14 -12 -11 -9 -9 -8 -8 -7 -7 -6 -4 -3 -2 -2 -3 -2 -1 -0 -0 -0 3 3 2 3 3 3 4 4 4 2 1 2 1 0 -0 3 4 11 12 12 12 13
-13 -13 -14 -14 -14 -12 -11 -10 -9 -9 -8 -7 -7 -5 -5 -4 -2 -4 -4 -2 -1 -0 -0 1 3 3 3 3 3 2 4 2 1 1 1 1 1 1 6 5 9 11 12 13 13
-14 -14 -14 -14 -14 -13 -12 -12 -11 -9 -8 -8 -8 -6 -7 -6 -6 -5 -4 -4 -3 -1 -1 0 1 3 4 4 3 4 2 1 1 -0 1 1 -0 2 2 2 4 10 12 12 13
-13 -13 -13 -13 -13 -13 -13 -12 -12 -10 -9 -8 -8 -8 -6 -6 -6 -6 -5 -4 -3 -3 -1 -0 1 4 5 4 4 4 2 1 0 1 1 -1 2 2 1 -1 8 10 12 12 12
-12 -11 -11 -11 -11 -12 -12 -12 -12 -12 -10 -10 -8 -7 -6 -7 -6 -6 -5 -4 -3 -2 -1 -0 1 2 4 4 4 2 2 2 2 2 1 0 0 4 1 6 9 12 12 12 12
-11 -11 -11 -11 -11 -11 -11 -12 -11 -11 -12 -10 -9 -7 -6 -7 -7 -6 -5 -5 -3 -2 -2 -1 0 2 3 4 3 3 4 1 -1 -0 0 -1 -1 5 1 7 9 9 12 11 10
-9 -10 -11 -11 -12 -12 -12 -12 -12 -11 -11 -11 -9 -6 -8 -8 -8 -7 -6 -6 -4 -3 -2 -1 0 2 3 2 -0 1 -0 1 -2 -2 -2 -3 -1 -2 6 6 10 10 11 11 9
-10 -10 -11 -11 -12 -12 -13 -14 -13 -10 -11 -10 -7 -6 -9 -9 -10 -8 -6 -6 -5 -4 -2 -1 1 2 -1 0 0 -1 2 0 -0 -3 -2 -2 -2 -1 7 8 10 8 8 8 9
-12 -13 -15 -17 -16 -13 -13 -16 -13 -8 -10 -7 -7 -8 -11 -10 -9 -8 -7 -6 -4 -4 -3 0 -2 -2 -1 0 2 1 2 -0 0 -1 -2 -3 -2 -4 6 9 8 8 8 8 6
-13 -14 -17 -19 -21 -14 -17 -16 -14 -8 -9 -9 -7 -8 -10 -11 -9 -8 -7 -6 -4 -4 -2 -2 -2 -1 -1 -1 -0 0 0 -0 -1 -2 -1 -2 -3 -4 5 8 8 7 7 7 8
-13 -14 -16 -19 -20 -17 -15 -12 -7 -6 -3 -9 -7 -6 -7 -8 -6 -8 -6 -7 -3 -1 -2 -1 -3 -4 -2 -1 -2 -1 0 -0 -1 -2 -1 -2 -3 -4 6 7 8 7 8 8 8
-14 -14 -15 -17 -17 -19 -17 -10 -5 -4 0 -4 -3 -5 -8 -7 -5 -7 -6 -4 -1 -4 -2 -0 -2 -3 -2 -3 -1 -1 0 -0 1 0 -3 -4 -4 -5 -2 6 5 5 9 10 10
-14 -14 -15 -16 -15 -17 -14 -10 -4 -3 -1 -4 -6 -6 -8 -6 -8 -6 -5 -4 -5 -4 -2 -2 -3 -2 -1 -5 -1 1 -2 -0 1 1 1 -4 -1 -4 -4 4 5 6 5 7 9
-14 -13 -14 -15 -16 -14 -13 -9 -5 0 -5 -9 -8 -8 -8 -5 -5 -8 -5 -3 -3 -3 -3 -11 -2 -1 -2 -5 -2 -1 -1 0 1 0 -2 -1 -1 -4 -5 -2 -1 5 7 6 9
-14 -13 -13 -13 -14 -13 -12 -8 -1 -2 -7 -9 -6 -6 -8 -6 -4 -5 -6 -5 -4 -7 -8 -2 -4 -2 -2 -2 -3 -2 -2 -4 -1 0 2 -1 -2 -3 -3 -4 -4 -4 -2 5 9
-14 -13 -13 -13 -13 -13 -12 -6 -3 -2 -10 -11 -9 -8 -6 -6 -6 -6 -6 -5 -6 -7 -7 -7 -8 -8 -4 -5 -6 -2 -1 1 -0 2 1 -2 -2 -4 -5 -5 -6 -5 -3 7 8
-14 -14 -13 -13 -12 -11 -9 -9 -14 -16 -9 -7 -8 -8 -6 -7 -8 -8 -8 -8 -6 -7 -7 -3 -5 -9 -6 -4 -2 -1 -2 1 0 2 1 -2 -2 -2 -5 -4 -4 -4 -4 -4 3
-14 -14 -14 -13 -8 -8 -3 -6 -8 -13 -6 -7 -10 -9 -11 -8 -7 -11 -11 -8 -5 -8 -8 -6 -10 -9 -5 -4 -4 -3 -0 -3 0 -1 -1 -2 -4 -6 -5 -5 -5 -5 -7 -7 -7
-12 -13 -11 -6 -6 -6 -6 -6 -10 -6 -5 -6 -10 -9 -8 -11 -9 -9 -11 -7 -4 -6 -8 -7 -4 -9 -8 -8 -5 -3 -3 -3 -2 -2 0 -0 -2 -1 -4 -5 -5 -5 -10 -10 -11
-11 -13 -8 -7 -5 -4 -6 -8 -4 -6 -6 -6 -7 -6 -9 -8 -8 -9 -11 -8 -5 -5 -6 -6 -6 -8 -12 -11 -8 -4 -3 -4 -5 -2 0 -4 -7 -5 -5 -5 -5 -7 -11 -11 -10
-11 -11 -6 -6 -7 -1 -3 -3 -6 -7 -4 -5 -6 -7 -7 -7 -7 -8 -10 -8 -6 -6 -8 -6 -6 -4 -9 -12 -7 -5 -4 -7 -5 -6 -5 -7 -5 -10 -9 -10 -11 -11 -11 -11 -9
-11 -11 -6 -6 -10 -9 -5 -5 -6 -6 -6 -4 -4 -5 -6 -6 -8 -9 -9 -8 -6 -6 -8 -9 -9 -8 -8 -10 -12 -8 -7 -6 -6 -4 -3 -5 -6 -11 -11 -9 -8 -10 -10 -10 -7
-11 -9 -4 -5 -6 -5 -6 -8 -6 -4 -5 -5 -5 -7 -7 -6 -6 -6 -7 -8 -8 -6 -5 -7 -6 -9 -8 -11 -11 -8 -8 -8 -7 -2 -4 -4 -6 -9 -7 -6 -6 -7 -7 -9 -7
-10 -10 -6 -8 -3 -3 -3 -4 -4 -6 -6 -5 -7 -6 -6 -6 -7 -7 -9 -8 -9 -8 -3 -5 -4 -5 -6 -6 -6 -6 -5 -5 -5 -5 -4 -6 -7 -5 -4 -4 -5 -4 -6 -6 -5
-10 -9 -4 -8 -4 -1 -3 -5 -4 -6 -6 -7 -6 -7 -7 -6 -7 -6 -7 -8 -8 -7 -4 -4 -4 -2 -2 -4 -5 -4 -5 -5 -5 -5 -5 -6 -5 -2 -2 -3 -4 -3 -3 -3 -3
-5 -8 -7 -12 -5 -6 -8 -7 -5 -7 -9 -7 -7 -9 -10 -10 -9 -7 -6 -8 -9 -9 -4 -3 -2 -3 -4 -7 -8 -4 -8 -6 -2 -0 -1 -1 -0 -2 -3 -4 -4 -3 -6 -5 -5
Wind_Speed
6 6 5 5 7 8 11 11 13 13 14 14 13 11 10 6 7 13 14 15 15 15 12 9 5 12 7 1 4 5 2 5 5 5 5 8 5 18 21 11 10 9 10 12 29
6 6 6 6 7 8 10 11 11 13 13 13 12 12 13 9 2 12 13 14 15 15 13 13 15 13 6 2 2 4 3 6 7 10 7 14 12 23 9 15 4 3 10 21 32
8 8 7 7 7 8 9 11 12 12 12 12 11 11 12 10 1 13 13 12 12 12 13 12 11 7 4 4 3 2 5 7 15 21 21 13 16 21 7 5 7 6 23 32 38
8 8 9 8 8 8 9 10 11 12 12 12 11 10 10 11 3 13 14 13 12 11 11 12 9 7 3 3 4 4 12 17 13 15 9 5 14 8 12 16 17 9 24 35 40
9 9 9 9 10 10 10 10 10 10 12 12 12 11 8 4 5 13 13 13 11 10 10 11 7 5 3 5 8 5 6 13 21 21 19 15 12 11 14 21 8 9 27 36 41
10 10 11 11 11 11 12 12 11 11 11 13 12 11 7 4 11 14 15 11 10 11 11 8 6 8 8 6 1 6 14 25 22 22 11 6 8 3 12 9 9 14 26 28 31
11 11 12 12 12 13 13 13 13 12 12 12 13 13 6 6 13 14 15 11 9 12 15 10 9 7 6 6 5 13 7 9 4 5 7 11 5 7 12 9 11 11 15 14 13
13 14 15 15 15 14 15 16 14 12 11 11 11 12 4 10 13 13 13 5 7 10 9 8 8 8 4 11 9 5 0 6 6 4 3 4 7 5 10 13 10 16 12 14 14
12 13 15 16 17 15 17 18 12 9 8 9 8 8 3 9 14 13 15 11 7 11 6 4 5 3 5 5 5 5 5 5 8 5 3 1 6 4 8 9 14 17 11 7 2
13 14 15 16 16 15 16 17 11 9 6 9 7 5 4 12 16 12 17 8 8 10 3 3 3 3 3 5 4 6 5 5 6 6 6 4 8 7 7 7 15 13 8 12 9
12 14 16 16 17 15 17 11 7 4 8 6 5 5 10 15 7 11 17 6 8 3 4 4 5 4 8 4 6 5 4 6 7 2 6 2 5 7 7 4 7 10 9 9 9
14 15 16 18 17 15 16 8 7 7 10 7 8 9 9 10 6 9 16 6 5 3 7 6 3 4 7 4 4 4 4 7 9 4 2 6 8 4 4 2 4 9 10 10 11
13 14 14 15 14 15 14 13 11 10 3 4 4 6 5 7 4 7 13 6 3 5 3 3 5 8 5 5 8 5 4 5 5 9 1 6 5 6 3 5 0 2 5 14 13
14 14 14 14 8 15 11 15 12 9 4 3 2 2 4 7 3 8 8 5 4 4 6 5 4 5 7 4 2 5 1 5 6 5 3 6 3 6 6 1 2 4 2 8 12
13 14 14 13 11 10 12 13 9 3 4 2 2 4 6 2 7 3 8 2 2 3 4 5 7 7 5 6 2 8 7 3 2 2 3 11 5 6 4 8 6 4 8 10 13
14 14 14 14 13 10 12 12 3 6 5 5 2 4 5 3 3 5 4 5 2 2 2 5 6 2 3 7 3 11 4 4 3 2 4 5 3 6 4 4 6 6 14 4 15
14 15 15 14 12 11 11 7 5 4 3 4 3 4 3 4 5 4 5 6 4 7 7 7 5 6 3 7 6 10 8 4 6 5 2 5 4 5 6 4 3 6 13 12 8
15 14 14 13 10 10 6 5 2 3 4 2 2 3 2 4 2 5 3 5 3 4 2 4 9 7 7 2 3 4 3 3 1 3 5 7 5 4 4 6 6 12 16 16 10
13 13 12 11 8 4 1 3 6 4 2 5 6 3 4 2 1 5 2 1 0 2 3 4 6 5 1 2 2 5 5 1 2 1 2 4 5 7 4 5 8 13 19 19 16
14 14 9 4 4 1 3 5 2 2 3 2 1 3 3 5 5 6 3 1 0 1 1 1 5 1 6 3 2 3 2 4 4 4 5 5 5 4 4 6 7 11 24 20 20
12 7 3 3 3 1 2 5 4 2 1 1 1 3 1 3 2 3 2 1 0 0 2 2 2 7 4 4 2 5 3 5 4 3 2 4 6 4 3 6 8 10 27 26 25
7 3 4 1 2 1 2 3 3 3 1 0 2 2 1 3 3 2 2 2 1 1 2 1 3 4 7 2 2 1 1 4 3 5 1 2 5 4 4 10 14 25 31 30 20
4 5 5 3 1 2 3 3 3 1 3 1 1 2 1 1 2 3 2 1 2 2 1 2 1 5 9 4 3 1 0 4 4 3 5 3 5 1 17 26 33 26 29 27 19
3 2 2 3 2 2 1 3 2 1 2 2 2 2 1 1 1 3 3 2 6 4 3 3 3 7 6 10 0 6 3 3 5 3 3 7 9 12 12 16 28 33 27 18 13
5 4 2 2 3 2 1 1 1 2 1 1 1 1 1 2 3 3 1 5 6 4 2 3 5 5 6 9 5 9 13 5 8 6 5 4 3 7 14 15 22 26 32 30 31
4 4 4 2 2 4 2 3 5 1 1 2 2 0 1 3 4 5 1 3 6 2 3 1 4 1 4 9 8 8 14 8 7 4 8 11 1 11 17 21 21 25 31 32 35
13 10 4 3 3 4 4 4 3 1 0 0 3 2 3 6 6 11 17 18 17 5 4 3 2 3 4 3 7 6 1 4 6 9 3 4 6 17 16 25 24 21 33 31 35
Wind_Direction
55 35 20 11 8 8 12 10 19 18 12 13 12 7 3 354 10 21 21 14 18 13 2 357 342 355 349 318 242 193 239 261 243 242 257 270 332 304 315 297 259 205 167 190 178
55 49 22 4 357 356 360 3 4 13 11 5 6 359 358 349 345 18 14 13 13 7 3 355 356 355 356 330 271 194 179 235 218 239 255 267 283 293 299 305 261 187 173 177 180
28 21 24 5 355 342 343 351 355 358 360 2 2 1 358 4 247 5 3 7 1 353 0 346 346 351 319 316 271 239 228 242 259 253 261 277 282 285 262 299 272 216 163 176 179
30 26 14 8 354 341 334 339 346 355 349 353 354 359 8 19 36 359 1 358 351 345 348 349 341 353 318 295 284 305 252 257 271 283 268 249 276 262 253 263 297 240 181 176 180
30 26 22 9 356 344 333 326 328 336 350 349 347 344 360 359 1 6 3 354 346 346 346 344 346 337 287 292 304 213 259 269 273 276 275 268 261 250 275 280 260 196 176 182 185
25 20 12 5 355 344 334 326 319 315 320 335 341 340 342 349 356 357 357 356 346 340 336 334 326 312 283 260 207 266 285 282 286 265 245 224 259 184 269 252 210 183 181 175 184
16 12 5 357 350 346 339 328 318 308 301 314 327 336 311 339 359 358 349 347 336 328 320 327 325 315 305 288 271 280 305 315 290 296 218 194 300 223 266 240 212 199 191 148 125
10 5 360 354 346 344 339 331 317 304 296 302 312 330 294 333 352 352 352 356 335 336 327 320 317 303 262 297 318 324 52 352 311 354 290 133 271 302 325 207 172 163 146 169 91
357 354 349 348 346 338 337 331 319 306 289 304 303 321 315 336 346 359 354 352 353 355 14 328 317 313 326 346 353 11 288 321 317 35 320 111 263 293 322 192 160 144 150 172 151
353 353 348 346 342 339 339 334 320 308 279 299 301 314 311 333 334 353 357 345 351 350 347 359 348 28 14 36 319 294 314 305 290 318 358 251 265 290 293 203 173 168 185 167 143
348 348 347 344 342 343 347 345 340 299 303 262 284 290 309 328 326 355 357 346 344 11 8 359 40 331 295 238 246 254 261 282 296 272 360 264 266 274 246 201 195 220 229 233 169
341 342 346 345 345 348 350 24 15 316 309 271 260 277 306 331 317 353 356 13 26 335 343 7 312 276 289 263 320 293 298 315 299 270 319 340 293 306 205 305 210 230 242 226 200
331 336 340 342 341 343 355 8 357 347 291 295 247 283 308 327 311 329 354 351 41 349 18 216 267 328 351 327 352 329 247 293 263 315 44 352 0 1 344 15 304 282 233 187 180
328 332 336 340 341 342 348 351 348 349 45 277 284 288 315 320 291 315 349 2 6 328 334 250 306 335 327 321 41 312 170 289 301 16 340 24 350 359 348 27 268 237 240 178 185
320 328 334 337 335 336 335 339 338 351 17 289 290 313 307 295 319 355 345 354 307 294 66 280 336 348 337 301 358 255 331 304 322 64 30 354 64 298 356 24 11 331 270 219 191
319 327 328 328 329 327 331 333 331 44 258 341 308 341 352 348 317 315 342 340 309 358 336 261 300 294 272 311 283 293 0 42 41 44 37 318 82 332 8 299 330 359 6 299 217
319 323 321 323 321 321 327 323 29 127 322 326 328 7 341 306 330 17 9 8 32 20 355 331 319 326 350 344 354 12 29 357 10 12 247 332 52 247 307 329 321 336 20 35 195
314 316 316 315 315 319 320 52 178 237 248 357 359 323 300 356 343 336 16 1 43 66 21 21 334 10 345 54 303 339 63 112 322 344 294 337 5 299 300 338 353 37 36 44 44
311 315 310 311 315 313 95 62 218 198 317 353 336 354 328 344 332 8 41 240 189 74 56 6 286 314 337 351 76 329 32 198 103 312 346 302 311 318 351 11 25 32 26 20 12
311 313 301 314 313 325 70 231 256 297 350 38 70 41 316 314 357 17 348 339 101 54 97 236 303 305 294 15 24 84 196 19 12 23 336 320 301 246 347 341 353 12 8 349 348
313 303 282 315 327 94 170 237 298 307 348 153 193 293 282 304 338 306 307 356 296 204 48 122 123 290 351 38 315 346 28 50 108 97 81 329 285 224 346 41 6 337 339 341 337
296 304 262 289 299 88 189 216 301 282 274 212 158 221 230 338 299 288 291 240 26 161 12 1 148 297 270 290 258 267 85 99 90 306 90 182 275 338 67 343 343 326 338 344 341
261 266 269 228 210 261 279 280 265 289 292 260 240 180 104 236 300 233 277 329 4 352 3 178 323 333 338 2 12 89 209 111 95 70 211 172 260 244 6 354 341 334 332 342 342
272 326 247 222 184 184 218 252 261 238 282 294 299 44 40 310 200 287 298 337 341 237 253 170 179 179 208 264 249 298 257 190 137 166 221 231 274 338 351 348 345 342 346 347 5
229 245 203 278 265 204 247 279 269 278 166 238 327 150 149 291 308 261 286 328 305 296 154 144 246 173 249 273 264 267 272 225 192 205 213 242 153 353 349 344 349 7 28 33 27
238 208 197 239 212 168 220 242 212 292 151 265 215 71 247 220 209 274 319 198 254 333 142 28 271 116 253 254 273 273 283 251 222 221 243 272 301 356 346 348 1 13 18 15 7
229 232 208 228 162 119 229 205 194 122 315 317 142 8 248 247 271 280 278 257 245 208 164 192 200 11 287 353 309 298 93 114 100 50 326 53 358 343 346 344 339 4 11 3 353
Height
1548 1548 1547 1545 1544 1543 1541 1540 1537 1535 1533 1531 1529 1527 1525 1524 1522 1520 1517 1517 1514 1511 1510 1508 1506 1504 1502 1501 1502 1502 1506 1504 1504 1498 1492 1487 1487 1482 1481 1479 1475 1471 1471 1472 1476
1549 1547 1547 1546 1545 1543 1542 1540 1538 1535 1533 1532 1529 1527 1525 1522 1521 1519 1518 1516 1514 1512 1510 1508 1505 1504 1502 1502 1502 1501 1506 1501 1494 1490 1489 1486 1486 1482 1481 1475 1472 1469 1469 1471 1474
1550 1549 1547 1546 1544 1543 1542 1540 1538 1536 1534 1532 1530 1527 1524 1521 1522 1519 1517 1515 1514 1513 1510 1508 1506 1504 1503 1502 1501 1498 1500 1493 1489 1487 1485 1484 1482 1481 1477 1473 1470 1468 1468 1469 1472
1551 1549 1548 1546 1545 1544 1542 1539 1538 1535 1533 1531 1529 1527 1525 1523 1526 1520 1517 1515 1514 1512 1510 1508 1506 1504 1504 1502 1499 1500 1492 1489 1485 1483 1482 1482 1478 1476 1474 1469 1467 1465 1466 1469 1471
1553 1551 1548 1547 1545 1543 1541 1539 1537 1535 1533 1531 1529 1527 1525 1524 1522 1519 1517 1515 1513 1512 1510 1508 1506 1505 1504 1501 1499 1496 1488 1484 1481 1479 1478 1477 1475 1474 1470 1467 1465 1465 1466 1467 1469
1553 1551 1549 1547 1545 1543 1540 1538 1536 1535 1532 1531 1528 1527 1524 1524 1520 1518 1515 1514 1512 1510 1509 1507 1506 1504 1502 1500 1499 1490 1486 1479 1474 1470 1473 1473 1470 1471 1466 1464 1464 1465 1468 1469 1472
1554 1551 1549 1547 1545 1542 1540 1537 1534 1533 1532 1530 1528 1526 1524 1524 1520 1517 1514 1512 1511 1510 1507 1506 1504 1504 1502 1498 1493 1489 1487 1476 1470 1467 1467 1467 1469 1468 1465 1464 1463 1463 1469 1470 1470
1555 1553 1551 1548 1545 1542 1539 1536 1532 1531 1530 1529 1527 1525 1522 1521 1518 1516 1514 1511 1510 1508 1505 1504 1504 1503 1501 1497 1491 1490 1488 1489 1471 1468 1466 1467 1474 1464 1461 1462 1463 1463 1468 1470 1470
1554 1551 1550 1547 1544 1542 1538 1534 1531 1528 1528 1527 1526 1524 1521 1520 1518 1516 1513 1510 1509 1507 1504 1503 1503 1502 1500 1502 1501 1498 1499 1488 1478 1470 1470 1469 1470 1463 1460 1461 1463 1464 1467 1468 1469
1554 1552 1549 1547 1543 1541 1538 1533 1530 1527 1527 1526 1525 1525 1521 1520 1516 1515 1512 1509 1507 1506 1505 1504 1502 1504 1503 1506 1511 1504 1498 1490 1485 1473 1471 1469 1468 1463 1461 1461 1461 1463 1467 1470 1472
1554 1551 1548 1545 1543 1540 1537 1533 1533 1530 1526 1526 1524 1523 1520 1519 1516 1515 1511 1509 1508 1506 1509 1505 1510 1511 1505 1502 1501 1500 1498 1493 1479 1473 1474 1469 1468 1463 1462 1463 1465 1464 1466 1469 1473
1554 1552 1549 1546 1543 1541 1538 1536 1536 1536 1527 1522 1522 1522 1520 1518 1516 1514 1513 1510 1509 1511 1508 1510 1510 1502 1500 1496 1496 1492 1493 1490 1480 1473 1474 1470 1466 1463 1461 1463 1464 1464 1465 1468 1475
1553 1551 1548 1545 1542 1540 1536 1537 1534 1532 1531 1522 1522 1521 1520 1519 1516 1514 1513 1511 1511 1511 1511 1513 1505 1500 1499 1498 1497 1493 1492 1490 1490 1478 1472 1473 1471 1470 1465 1466 1465 1468 1468 1468 1467
1552 1550 1547 1545 1544 1540 1538 1536 1534 1532 1536 1524 1522 1522 1520 1517 1516 1514 1513 1514 1512 1513 1511 1511 1503 1503 1500 1497 1499 1500 1488 1488 1487 1485 1489 1481 1488 1474 1474 1467 1468 1468 1468 1470 1470
1551 1549 1547 1543 1542 1540 1541 1536 1534 1534 1567 1526 1523 1522 1519 1520 1517 1515 1514 1512 1513 1514 1515 1510 1506 1505 1503 1498 1498 1495 1488 1487 1484 1486 1488 1488 1494 1483 1475 1475 1473 1470 1469 1469 1471
1550 1548 1546 1544 1542 1540 1538 1537 1535 1548 1560 1527 1522 1522 1521 1518 1517 1515 1515 1514 1512 1512 1513 1512 1506 1505 1503 1497 1496 1491 1488 1488 1492 1494 1506 1500 1502 1494 1487 1484 1477 1474 1471 1468 1470
1549 1547 1545 1542 1542 1539 1537 1537 1553 1559 1529 1528 1527 1524 1526 1522 1519 1517 1518 1520 1524 1528 1526 1517 1508 1505 1504 1501 1495 1496 1500 1516 1513 1515 1512 1502 1503 1494 1487 1483 1480 1477 1475 1474 1474
1547 1545 1543 1541 1539 1538 1538 1539 1547 1532 1529 1526 1526 1525 1526 1524 1521 1521 1521 1527 1523 1526 1535 1538 1530 1511 1508 1509 1510 1510 1511 1529 1517 1524 1521 1503 1499 1494 1485 1483 1482 1483 1483 1482 1483
1546 1543 1541 1539 1538 1537 1538 1555 1543 1534 1531 1530 1526 1527 1529 1525 1526 1524 1525 1527 1526 1526 1531 1535 1526 1512 1509 1510 1511 1509 1520 1515 1520 1522 1527 1515 1501 1488 1484 1483 1484 1484 1483 1483 1482
1545 1542 1539 1538 1537 1537 1540 1541 1535 1532 1531 1531 1533 1530 1533 1530 1529 1529 1526 1525 1525 1525 1526 1528 1535 1516 1512 1509 1511 1510 1514 1520 1528 1525 1522 1519 1517 1510 1489 1488 1486 1484 1484 1483 1482
1544 1541 1538 1537 1538 1538 1546 1543 1535 1532 1531 1531 1532 1533 1531 1532 1531 1529 1527 1526 1525 1525 1526 1528 1533 1523 1515 1516 1518 1519 1517 1522 1528 1532 1533 1539 1518 1500 1494 1495 1494 1488 1486 1482 1480
1543 1541 1538 1537 1540 1539 1540 1537 1534 1531 1530 1529 1530 1532 1532 1532 1531 1529 1530 1526 1525 1525 1527 1529 1535 1538 1522 1516 1517 1517 1517 1525 1534 1534 1539 1537 1527 1498 1497 1496 1493 1486 1483 1480 1477
1540 1538 1537 1537 1541 1540 1535 1533 1532 1532 1532 1531 1530 1530 1530 1531 1533 1530 1526 1525 1525 1526 1526 1527 1535 1542 1525 1520 1517 1516 1516 1521 1530 1534 1535 1537 1521 1496 1497 1495 1493 1492 1487 1482 1478
1541 1539 1536 1535 1534 1537 1534 1533 1531 1530 1531 1532 1532 1531 1531 1531 1531 1531 1528 1525 1526 1525 1524 1525 1533 1532 1542 1523 1524 1523 1520 1520 1525 1540 1530 1525 1510 1505 1508 1507 1498 1491 1486 1484 1483
1540 1536 1536 1538 1534 1535 1536 1534 1532 1531 1530 1531 1533 1532 1533 1534 1534 1533 1529 1528 1524 1522 1524 1526 1529 1534 1529 1525 1524 1520 1517 1521 1526 1520 1522 1513 1515 1518 1515 1512 1507 1501 1490 1487 1487
1536 1535 1534 1535 1534 1534 1534 1533 1532 1530 1531 1531 1532 1532 1533 1534 1532 1533 1532 1532 1530 1525 1525 1527 1527 1526 1527 1519 1520 1516 1509 1511 1514 1514 1514 1511 1514 1520 1516 1511 1506 1502 1497 1493 1491
1531 1531 1532 1533 1532 1534 1532 1528 1531 1531 1530 1530 1532 1534 1534 1532 1529 1527 1526 1525 1522 1522 1527 1529 1530 1530 1524 1520 1517 1511 1500 1504 1515 1521 1519 1519 1527 1524 1518 1513 1508 1503 1497 1497 1494